Muskegon, MI

10:44 AM EST on November 12, 2019 (GMT -0500)
Muskegon County

Weather History for KMKG - September, 2019

Change the Weather History Date:

Thursday, September 5, 2019

  Actual Average Record
Temperature  
Mean Temperature 59 °F 66 °F  
Max Temperature 71 °F 75 °F 92 °F (1948)
Min Temperature 47 °F 57 °F 37 °F (1900)
Degree Days  
Heating Degree Days 6 2  
Month to date heating degree days 10 10  
Since 1 July heating degree days 14 40  
Cooling Degree Days 0 3  
Month to date cooling degree days 8 17  
Year to date cooling degree days 553 524  
Growing Degree Days 8 (Base 50)    
Moisture  
Dew Point 48 °F    
Average Humidity 66    
Maximum Humidity 86    
Minimum Humidity 45    
Precipitation  
Precipitation 0.04 in 0.13 in 2.40 in (1916)
Month to date precipitation 0.07 0.60  
Year to date precipitation 27.20 21.18  
Snow  
Snow 0.00 in 0.00 in - ()
Month to date snowfall 0.0 0.0  
Since 1 July snowfall 0.0 0.0  
Since 1 September snowfall 0.0 0.0  
Snow Depth 0.00 in    
Sea Level Pressure  
Sea Level Pressure 30.14 in    
Wind  
Wind Speed 4 mph (NW)    
Max Wind Speed 13 mph    
Max Gust Speed 17 mph    
Visibility 10 miles    
Events Fog , Rain , Thunderstorm    
T = Trace of Precipitation, MM = Missing Value Source: NWS Daily Summary

Daily Weather History Graph

Daily Weather History Graph

Search for Another Location

Airport or City:

Astronomy

Sep. 05, 2019 Rise Set
Actual Time 7:13 AM EDT 8:13 PM EDT
Civil Twilight 6:44 AM EDT 8:42 PM EDT
Nautical Twilight 6:09 AM EDT 9:16 PM EDT
Astronomical Twilight 5:33 AM EDT 9:52 PM EDT
Moon 2:30 PM EDT (9/5) No Moon Set
Length of Visible Light 13h 57m
Length of Day
12h 59m
Waxing Crescent, 45% of the Moon is Illuminated
Sep 5
Waxing Crescent
Sep 5
First Quarter
Sep 14
Full
Sep 21
Last Quarter
Sep 28
New

Hourly Weather History & Observations

Time (EDT) Temp. Dew Point Humidity Pressure Visibility Wind Dir Wind Speed Gust Speed Precip Events Conditions
12:55 AM 54.0 °F 46.0 °F 75% 30.17 in 10.0 mi North 4.6 mph - N/A   Clear
1:55 AM 52.0 °F 46.0 °F 80% 30.17 in 10.0 mi Calm Calm - N/A   Clear
2:55 AM 50.0 °F 45.0 °F 83% 30.17 in 10.0 mi Calm Calm - N/A   Clear
3:55 AM 48.0 °F 44.1 °F 86% 30.17 in 10.0 mi Calm Calm - N/A   Clear
4:55 AM 50.0 °F 45.0 °F 83% 30.18 in 10.0 mi North 3.5 mph - N/A   Clear
5:55 AM 51.1 °F 45.0 °F 80% 30.19 in 10.0 mi Calm Calm - N/A   Clear
6:55 AM 48.0 °F 44.1 °F 86% 30.20 in 10.0 mi Calm Calm - N/A   Partly Cloudy
7:55 AM 48.0 °F 44.1 °F 86% 30.20 in 10.0 mi Calm Calm - N/A Fog Shallow Fog
8:55 AM 55.0 °F 48.0 °F 77% 30.19 in 10.0 mi ESE 5.8 mph - N/A   Partly Cloudy
9:55 AM 62.1 °F 46.9 °F 58% 30.20 in 10.0 mi East 3.5 mph - N/A   Partly Cloudy
10:55 AM 64.9 °F 44.1 °F 47% 30.20 in 10.0 mi Variable 3.5 mph - N/A   Partly Cloudy
11:55 AM 68.0 °F 46.9 °F 47% 30.19 in 10.0 mi East 5.8 mph - N/A   Partly Cloudy
12:55 PM 70.0 °F 48.9 °F 47% 30.20 in 10.0 mi WNW 5.8 mph - N/A   Partly Cloudy
1:55 PM 69.1 °F 48.0 °F 47% 30.19 in 10.0 mi WSW 6.9 mph - N/A   Partly Cloudy
2:55 PM 70.0 °F 48.0 °F 46% 30.16 in 10.0 mi SW 9.2 mph - N/A   Partly Cloudy
3:55 PM 70.0 °F 48.9 °F 47% 30.14 in 10.0 mi Variable 6.9 mph - N/A   Partly Cloudy
4:55 PM 69.1 °F 48.0 °F 47% 30.11 in 10.0 mi WSW 5.8 mph - N/A   Partly Cloudy
5:55 PM 68.0 °F 48.0 °F 49% 30.09 in 10.0 mi WSW 6.9 mph - N/A   Partly Cloudy
6:55 PM 66.9 °F 48.9 °F 52% 30.09 in 10.0 mi SW 5.8 mph - N/A   Scattered Clouds
7:55 PM 64.0 °F 48.9 °F 58% 30.08 in 10.0 mi WNW 4.6 mph - N/A   Mostly Cloudy
8:55 PM 62.1 °F 50.0 °F 65% 30.03 in 10.0 mi South 4.6 mph - N/A   Mostly Cloudy
9:50 PM 60.8 °F 51.8 °F 72% 30.06 in 10.0 mi North 3.5 mph - N/A   Mostly Cloudy
9:55 PM 62.1 °F 51.1 °F 67% 30.05 in 10.0 mi East 3.5 mph - N/A   Mostly Cloudy
10:14 PM 62.1 °F 52.0 °F 70% 30.10 in 10.0 mi NNW 8.1 mph - N/A Thunderstorm Thunderstorm
10:55 PM 61.0 °F 55.9 °F 83% 30.06 in 10.0 mi NE 3.5 mph - 0.03 in Rain Light Rain
11:55 PM 60.1 °F 55.0 °F 83% 30.03 in 10.0 mi SE 3.5 mph - 0.00 in   Overcast